Philadelphia, PA

4:25 PM EDT on May 24, 2015 (GMT -0400)
Somerton | | Change Station
CLOSE
Current Station
Personal Weather Station
Location: Philadelphia, PA
Elevation: 167 ft
Nearby Weather Stations

Elev 167 ft 40.13 °N, 75.00 °W | Updated 13 minutes ago

Partly Cloudy
Partly Cloudy
81.5 °F
Feels Like 81 °F
N
3.1
Wind Variable Wind from NNW

Today
High -- | Low -- °F
--% Chance of Precip.
Yesterday
High -- | Low -- °F
Precip. -- in
5:37 AM 8:16 PM
Waxing Crescent, 42% visible
Pressure 30.28 in
Visibility 10.0 miles
Clouds Few 6500 ft
Heat Index 81 °F
Dew Point 52 °F
Humidity 36%
Rainfall 0.00 in
Snow Depth Not available.
UV 6 out of 12
Pollen 8.00 out of 12
Air Quality Not available.
Flu Activity Sporadic
METAR KPNE 241954Z AUTO VRB04KT 10SM FEW065 26/07 A3028 RMK AO2 SLP253 T02610072 TSNO

More Conditions Fewer Conditions

Pressure 30.28 in
Visibility 10.0 miles
Clouds Few 6500 ft
Heat Index 81 °F
Dew Point 52 °F
Humidity 36%
Rainfall 0.00 in
Snow Depth Not available.
UV 6 out of 12
Pollen 8.00 out of 12
Air Quality Not available.
Flu Activity Sporadic
METAR KPNE 241954Z AUTO VRB04KT 10SM FEW065 26/07 A3028 RMK AO2 SLP253 T02610072 TSNO

More Conditions Fewer Conditions

10-Day Weather Forecast

Almanac

Astronomy

May. 24, 2015 Rise Set
Actual Time
Civil Twilight
Nautical Twilight
Astronomical Twilight
Moon
Length of Visible Light
Length of Day
Tomorrow will be .
, % of the Moon is Illuminated

Today's Extremes

State Highs State Lows

Community

WunderPhotos

Upload Photos

1,823,855 photos uploaded!

WunderBlogs® & News

Nearby

Air Quality

  Air Quality AQ Index Pollutant
Not available.

Snow Depth

Station Depth Elevation

Earthquake Activity

City Distance Mag. Time & Date
Minimum magnitude displayed is 2.5.

Coastal Water Temperatures

Place Temperature

Stations

Nearby Weather Stations

Station Location Temp. Windchill Dew Point Humidity Wind Precip. Elev Updated Type